Regional Weather Roundup
Issued by NWS

Home | Current Version | Previous Version | Text Only | Print | Product List | Glossary Off
Versions: 1 2 3 4 5 6 7 8 9 10 11 12 13 14 15 16 17 18 19 20 21 22 23 24 25 26 27 28 29 30 31 32 33 34 35 36 37 38 39 40 41 42 43 44 45 46 47 48 49 50

000
ASUS43 KIND 271359
RWRIN

WEATHER ROUNDUP FOR INDIANA
NATIONAL WEATHER SERVICE INDIANAPOLIS IN
900 AM EST FRI FEB 27 2015

NOTE: "FAIR" INDICATES FEW OR NO CLOUDS BELOW 12,000 FEET WITH NO
SIGNIFICANT WEATHER AND/OR OBSTRUCTIONS TO VISIBILITY.

* - STATION DOES NOT REPORT WEATHER SUCH AS PRECIPITATION OR FOG.

+ - STATION NOT QUALITY CONTROLLED BY THE NATIONAL WEATHER SERVICE.
    USE DATA WITH CAUTION...ESPECIALLY DEWPOINT AND RELATIVE
    HUMIDITY OBSERVATIONS.

INZ001>003-010>013-019-020-271500-
NORTHWEST INDIANA

CITY           SKY/WX    TMP DP  RH WIND       PRES   REMARKS
GARY /AIRPORT/ SUNNY      7  -4  61 W9        30.56R WCI  -7
VALPARAISO     NOT AVBL

$$

LMZ046-743>745-271500-
SOUTHERN LAKE MICHIGAN

STATION/POSITION TIME  TEMP WIND        PRES
                       AIR  DIR/SP/G
                 (UTC) (F)  (DEG/KT/KT) (MB)
MICHIGAN CITY    1300    5  170/  5/  6   N/A

$$

INZ004-005-014>016-021>024-271500-
NORTH CENTRAL INDIANA

CITY           SKY/WX    TMP DP  RH WIND       PRES   REMARKS
ELKHART        MOSUNNY   -4 -11  71 CALM      30.54R
GOSHEN         SUNNY     -4  -4 100 CALM      30.52R FOG
SOUTH BEND     CLOUDY     0  -8  69 CALM      30.53R

$$

INZ006>009-017-018-025>027-271500-
NORTHEAST INDIANA

CITY           SKY/WX    TMP DP  RH WIND       PRES   REMARKS
ANGOLA *+      SUNNY     -8 -15  71 CALM      30.49R
FORT WAYNE     MOSUNNY    4  -2  76 CALM      30.53R

$$

INZ028-029-035-036-043>045-051>053-271500-
WEST CENTRAL INDIANA

CITY           SKY/WX    TMP DP  RH WIND       PRES   REMARKS
CRAWFORDSVL +  SUNNY      0 -10  63 W3        30.57R
GREENCASTLE +  PTSUNNY    7  -4  61 N3        30.56R
LAFAYETTE      SUNNY     -1  -5  82 W3        30.58R
TERRE HAUTE    CLOUDY     6  -2  69 NW6       30.60R WCI  -4

$$

INZ030>032-037>040-046>048-054>057-064-065-271500-
CENTRAL INDIANA

CITY           SKY/WX    TMP DP  RH WIND       PRES   REMARKS
ANDERSON       SUNNY      3   0  85 CALM      30.54
GREENWOOD *+   SUNNY      5   0  78 CALM      30.55R
INDIANAPOLIS   MOSUNNY    5  -1  76 W6        30.55R WCI  -6
-EAGLE CREEK   MOSUNNY    6  -2  69 NW8       30.55R WCI  -7
KOKOMO *+      SUNNY      3  -4  72 W7        30.54R WCI  -9
MT COMFORT *+    N/A      3  -6  66 CALM      30.54R VSB 1
SHELBYVILLE    SUNNY      2  -3  80 CALM      30.55R HAZE

$$

INZ033-034-041-042-049-050-058-059-271500-
EAST CENTRAL INDIANA

CITY           SKY/WX    TMP DP  RH WIND       PRES   REMARKS
MUNCIE         MOSUNNY    5   2  87 CALM      30.53R

$$

INZ060-061-067>069-081>083-085>088-271500-
SOUTHWEST INDIANA

CITY           SKY/WX    TMP DP  RH WIND       PRES   REMARKS
EVANSVILLE     SUNNY     15   4  61 N10       30.62R WCI   2
HUNTINGBURG *+ SUNNY     10   3  72 N7        30.60R WCI   0

$$

INZ062-063-066-070>080-084-089>092-271500-
SOUTH CENTRAL AND SOUTHEAST INDIANA

CITY           SKY/WX    TMP DP  RH WIND       PRES   REMARKS
BLOOMINGTON    SUNNY      6   2  83 NW3       30.56R
SEYMOUR +      MOSUNNY    1  -4  78 CALM      30.59R

$$




USA.gov is the U.S. government's official web portal to all federal, state and local government web resources and services.